Home > Weather > Oranjestad > Past weeks

Flag for Aruba Past Weather in Oranjestad, Aruba — Yesterday and Last 2 Weeks

Now
86 °F

Scattered clouds.


Feels Like: 102 °F
Forecast: 83 / 90 °F
Wind: 15 mph from Southeast

Location: Queen Beatrix Airport - Aruba

Current Time: Aug 27, 2016 at 11:23:04 AM

Latest Report: Aug 27, 2016 at 11:00 AM


Visibility: N/A

Pressure: 29.89 "Hg

Humidity: 84%

Dew Point: 81 °F

Location of OranjestadLocation

Past Weather in Oranjestad — Graph

°F

Oranjestad Temperature Yesterday

Maximum temperature yesterday: 93 °F (at 3:00 PM)
Minimum temperature yesterday: 82 °F (at 6:00 AM)
Average temperature yesterday: 87 °F

High & Low Weather Summary for the Past Weeks

 TemperatureHumidityPressure
High95 °F (Aug 25, 12:00 PM)94% (Aug 27, 6:00 AM)29.95 "Hg (Aug 27, 6:00 AM)
Low82 °F (Aug 13, 3:00 AM)59% (Aug 13, 2:00 PM)29.71 "Hg (Aug 25, 3:00 PM)
Average86 °F76%29.85 "Hg
* Reported Aug 12 10:00 AM — Aug 27 10:00 AM, Oranjestad, Weather by CustomWeather, © 2016

Note: Actual official high and low records may vary slightly from our data, if they occured in-between our weather recording intervals... More about our weather records

Advertising

Oranjestad Weather History for the Previous 24 Hours

Scroll right to see more
 ConditionsComfort  
Time TempWeatherWind HumidityBarometerVisibility
10:00 AM
Sat, Aug 27
84 °FScattered clouds.16 mph89%29.89 "HgN/A
9:00 AM84 °FPartly sunny.14 mph89%29.89 "HgN/A
8:00 AM84 °FScattered clouds.16 mph89%29.86 "HgN/A
7:00 AM82 °FScattered clouds.13 mph89%29.83 "HgN/A
6:00 AM82 °FPassing clouds.13 mph94%29.83 "HgN/A
4:00 AM84 °FPassing clouds.9 mph84%29.80 "HgN/A
3:00 AM84 °FPassing clouds.12 mph79%29.80 "HgN/A
2:00 AM84 °FPassing clouds.9 mph79%29.83 "HgN/A
1:00 AM84 °FPassing clouds.14 mph84%29.83 "HgN/A
12:00 AM84 °FPassing clouds.12 mph84%29.83 "HgN/A
11:00 PM
Fri, Aug 26
84 °FPassing clouds.13 mph84%29.86 "HgN/A
10:00 PM84 °FPassing clouds.10 mph84%29.86 "HgN/A
9:00 PM86 °FPassing clouds.12 mph79%29.83 "HgN/A
8:00 PM86 °FPassing clouds.12 mph79%29.80 "HgN/A
7:00 PM86 °FPassing clouds.13 mph79%29.77 "HgN/A
6:00 PM88 °FPassing clouds.15 mph75%29.74 "HgN/A
5:00 PM91 °FPassing clouds.15 mph67%29.74 "HgN/A
4:00 PM93 °FPassing clouds.18 mph63%29.74 "HgN/A
3:00 PM93 °FPassing clouds.20 mph63%29.74 "HgN/A
2:00 PM91 °FPassing clouds.13 mph67%29.77 "HgN/A
1:00 PM90 °FPassing clouds.16 mph67%29.80 "HgN/A
12:00 PM91 °FPassing clouds.15 mph63%29.83 "HgN/A
11:00 AM91 °FPassing clouds.16 mph67%29.83 "HgN/A
Weather by CustomWeather, © 2016

See weather overviewHow to use our weather pages